EYESAT A (AO-27) (22825 NORAD) Tracking and Keplerian Element Data

This shows tracking and keplerian element data for the satellite.

Feedback or suggestion? Click here.




ElementValue
Catalog22825
NameEYESAT A (AO-27)
Epoch Orbit52050
Epoch Day324.80593503
Epoch Year2022
RAAN359.0307
Inclination98.8711
Eccentricity0.0007713
Argument of Perigee321.705
Mean Anonmoly38.3583
Mean Motion14.30211302
Decay Rate7.4E-07
L11 22825U 93061C 22324.80593503 .00000074 00000+0 46301-4 0 9992
L22 22825 98.8711 359.0307 0007713 321.7050 38.3583 14.30211302520507



Live tracking and technical data element details for EYESAT A (AO-27) (NORAD 22825). EYESAT A (AO-27) can be tracked NOW for your location showing map with azimuth and elevation plus other details from your city location.







IsCatalogInMostPopularTable: catalog: 22825, numindb: 428
Update: records affected: 1



GetName: 22825 EYESAT A (AO-27)

Hit Count: updated at: Mon, 28 Nov 2022 04:08:27 GMT